This is the latest recevied weather packets stored in our database for station/object N9WHM. If no packets are shown the sender has not sent any weather packets the latest 10 day(s).
| Time | Temp. | Humidity | Pressure | Rain* | Wind** | Luminosity | Snow |
|---|---|---|---|---|---|---|---|
| 1777584834 | 13.33° C | 35% | 1018.6 hPa | 0 mm | - | 643 W/m² | - |
| 1777584531 | 12.22° C | 35% | 1018.4 hPa | 0 mm | - | 190 W/m² | - |
| 1777584228 | 12.22° C | 35% | 1018.5 hPa | 0 mm | - | 206 W/m² | - |
| 1777583927 | 12.22° C | 36% | 1018.6 hPa | 0 mm | - | 189 W/m² | - |
| 1777583624 | 12.78° C | 36% | 1018.5 hPa | 0 mm | - | 278 W/m² | - |
| 1777583322 | 12.78° C | 37% | 1018.5 hPa | 0 mm | - | 202 W/m² | - |
| 1777583018 | 12.78° C | 38% | 1018.5 hPa | 0 mm | - | 708 W/m² | - |
| 1777582715 | 13.33° C | 38% | 1018.6 hPa | 0 mm | - | 362 W/m² | - |
| 1777582415 | 13.33° C | 39% | 1018.8 hPa | 0 mm | - | 761 W/m² | - |
| 1777582109 | 12.22° C | 39% | 1018.6 hPa | 0 mm | - | 769 W/m² | - |
| 1777581804 | 12.22° C | 39% | 1018.8 hPa | 0 mm | - | 332 W/m² | - |
| 1777581502 | 12.22° C | 41% | 1018.6 hPa | 0 mm | - | 228 W/m² | - |
| 1777581198 | 12.78° C | 41% | 1018.7 hPa | 0 mm | - | 187 W/m² | - |
| 1777580892 | 12.78° C | 40% | 1018.7 hPa | 0 mm | - | 219 W/m² | - |
| 1777580587 | 12.78° C | 38% | 1018.8 hPa | 0 mm | - | 736 W/m² | - |
| 1777580283 | 12.78° C | 40% | 1018.7 hPa | 0 mm | - | 776 W/m² | - |
| 1777579980 | 11.67° C | 42% | 1018.8 hPa | 0 mm | - | 230 W/m² | - |
| 1777579676 | 12.22° C | 42% | 1018.8 hPa | 0 mm | - | 219 W/m² | - |
| 1777579374 | 12.22° C | 42% | 1018.7 hPa | 0 mm | - | 253 W/m² | - |
| 1777579070 | 12.22° C | 41% | 1018.9 hPa | 0 mm | - | 274 W/m² | - |
| 1777578765 | 12.22° C | 41% | 1018.9 hPa | 0 mm | - | 256 W/m² | - |
| 1777578465 | 12.22° C | 42% | 1018.8 hPa | 0 mm | - | 233 W/m² | - |
| 1777578160 | 12.22° C | 43% | 1018.9 hPa | 0 mm | - | 386 W/m² | - |
| 1777577856 | 12.22° C | 43% | 1019 hPa | 0 mm | - | 241 W/m² | - |
| 1777577552 | 12.22° C | 41% | 1018.9 hPa | 0 mm | - | 228 W/m² | - |
* Rain latest hour (hover to see other rain measurements)
** Current wind speed in m/s (hover to see current wind gust speed)